EW1088 Weather Reports


time (UTC)temp
C
wind
direction
speed
KPH
gust
KPH
rain 1hr
cm
rain 24hr
cm
rain mn
cm
humidity
%
barometer
mb
20260507123907 2 6 0.0 3.2 0.05 0.79 0.18 95 1016.6
20260507123902 2 350 0.0 1.6 0.05 0.79 0.18 95 1016.6
20260507123505 2 351 0.0 1.6 0.05 0.79 0.18 95 1016.6
20260507123006 2 350 0.0 1.6 0.05 0.79 0.18 95 1016.8
20260507121904 2 350 0.0 3.2 0.03 0.76 0.15 95 1016.8
20260507121900 2 350 0.0 3.2 0.05 0.79 0.18 95 1016.6
20260507120901 2 350 0.0 1.6 0.03 0.76 0.15 95 1016.8
20260507120359 2 350 0.0 4.8 0.03 0.76 0.15 95 1016.6
20260507115901 2 350 0.0 4.8 0.03 0.76 0.15 95 1016.6
20260507115359 2 352 0.0 1.6 0.03 0.76 0.15 95 1016.8
20260507114856 2 352 0.0 1.6 0.03 0.76 0.15 95 1016.8
20260507114354 2 352 0.0 0.0 0.00 0.74 0.13 95 1016.6
20260507113855 2 352 0.0 0.0 0.00 0.74 0.13 95 1016.6
20260507113353 2 352 0.0 0.0 0.00 0.74 0.13 95 1016.6
20260507112853 2 352 0.0 0.0 0.00 0.74 0.13 95 1016.6
20260507112351 2 352 0.0 0.0 0.00 0.74 0.13 95 1016.6
20260507111854 2 352 0.0 0.0 0.00 0.74 0.13 95 1016.5
20260507111850 2 352 0.0 0.0 0.00 0.74 0.13 95 1016.6
20260507111456 2 352 0.0 0.0 0.00 0.74 0.13 95 1016.5
20260507110350 2 352 0.0 0.0 0.00 0.74 0.13 94 1016.5
20260507105849 2 352 0.0 0.0 0.00 0.74 0.13 94 1016.6
20260507105349 2 352 0.0 1.6 0.00 0.74 0.13 94 1016.5
20260507104847 2 352 0.0 1.6 0.00 0.74 0.13 94 1016.5
20260507104347 2 352 0.0 1.6 0.00 0.74 0.13 94 1016.5
20260507103846 2 352 0.0 4.8 0.00 0.74 0.13 94 1016.5
20260507103347 2 352 1.6 4.8 0.00 0.74 0.13 94 1016.5
20260507102846 2 350 1.6 4.8 0.00 0.74 0.13 94 1016.5
20260507102351 2 356 1.6 4.8 0.00 0.74 0.13 94 1016.6
20260507102347 2 356 1.6 4.8 0.00 0.74 0.13 94 1016.5
20260507101346 2 340 3.2 8.0 0.00 0.74 0.13 94 1016.6
20260507100850 2 314 3.2 8.0 0.00 0.74 0.13 94 1016.5
20260507100846 2 341 3.2 8.0 0.00 0.74 0.13 94 1016.5
20260507095851 3 322 3.2 6.4 0.03 0.74 0.13 94 1016.4
20260507095847 2 296 3.2 8.0 0.03 0.74 0.13 94 1016.5
20260507094846 3 320 1.6 6.4 0.03 0.74 0.13 94 1016.4
20260507094350 3 318 1.6 4.8 0.03 0.74 0.13 94 1016.4
20260507094346 3 342 1.6 6.4 0.03 0.74 0.13 94 1016.4
20260507093350 3 301 1.6 4.8 0.05 0.74 0.13 94 1016.4
20260507093346 3 301 1.6 4.8 0.05 0.74 0.13 94 1016.4
20260507092346 3 301 3.2 9.7 0.05 0.74 0.13 94 1016.3
20260507091851 3 295 1.6 6.4 0.05 0.74 0.13 94 1016.2
20260507091846 3 299 3.2 9.7 0.05 0.74 0.13 94 1016.3
20260507090849 3 301 3.2 4.8 0.08 0.74 0.13 94 1016.1
20260507090845 3 301 3.2 4.8 0.10 0.74 0.13 94 1016.0
20260507085844 3 283 3.2 6.4 0.13 0.71 0.10 94 1016.0
20260507085344 3 280 1.6 6.4 0.15 0.71 0.10 94 1015.9
20260507084845 3 154 0.0 0.0 0.18 0.71 0.10 94 1015.9
20260507084345 3 154 0.0 1.6 0.23 0.71 0.10 94 1015.9
20260507084341 3 154 0.0 1.6 0.25 0.71 0.10 94 1015.9
20260507083341 3 154 0.0 1.6 0.25 0.69 0.08 93 1015.8
20260507082843 3 154 0.0 3.2 0.25 0.69 0.08 93 1015.8
20260507082838 3 154 0.0 3.2 0.25 0.69 0.08 93 1015.8
20260507081834 3 154 0.0 3.2 0.25 0.69 0.08 93 1015.7
20260507081334 3 149 0.0 3.2 0.28 0.69 0.08 93 1015.6
20260507080834 3 149 1.6 6.4 0.25 0.66 0.05 93 1015.6
20260507080333 3 148 3.2 6.4 0.25 0.64 0.03 92 1015.6
20260507075836 3 168 3.2 6.4 0.20 0.58 0.58 92 1015.6
20260507075832 3 174 1.6 8.0 0.20 0.56 0.56 93 1015.6
20260507074829 3 191 1.6 8.0 0.20 0.53 0.53 92 1015.6
20260507074329 4 228 1.6 6.4 0.18 0.48 0.48 93 1015.6
20260507073831 4 228 3.2 6.4 0.18 0.46 0.46 93 1015.5
20260507073827 4 196 1.6 8.0 0.18 0.43 0.43 93 1015.5
20260507072827 4 156 1.6 8.0 0.20 0.43 0.43 93 1015.3
20260507072327 4 119 1.6 8.0 0.20 0.43 0.43 93 1015.2
20260507071827 4 106 3.2 4.8 0.23 0.43 0.43 93 1015.2
20260507071327 4 34 3.2 4.8 0.20 0.41 0.43 93 1015.2
20260507070832 4 299 1.6 4.8 0.20 0.38 0.38 93 1015.1
20260507070827 4 34 1.6 4.8 0.23 0.41 0.41 93 1015.1
20260507065831 4 299 3.2 6.4 0.20 0.38 0.38 94 1015.1
20260507065826 4 297 4.8 8.0 0.20 0.36 0.36 93 1015.0
20260507065430 4 299 4.8 9.7 0.18 0.33 0.33 93 1015.1
20260507064324 4 299 6.4 9.7 0.15 0.30 0.30 94 1015.1
20260507063818 4 286 6.4 11.3 0.15 0.28 0.28 94 1015.0
20260507063322 4 290 3.2 8.0 0.10 0.23 0.23 93 1014.9
20260507063318 4 282 4.8 11.3 0.13 0.25 0.25 94 1015.0
20260507062319 4 276 3.2 6.4 0.13 0.23 0.23 93 1014.8
20260507061818 5 297 3.2 6.4 0.10 0.20 0.20 93 1014.6
20260507061318 5 297 3.2 6.4 0.10 0.20 0.20 93 1014.5
20260507060818 5 293 3.2 6.4 0.08 0.18 0.18 92 1014.5
20260507060320 5 290 3.2 6.4 0.10 0.18 0.18 92 1014.4
20260507055819 5 288 3.2 6.4 0.10 0.18 0.18 92 1014.4
20260507055323 5 278 3.2 6.4 0.08 0.15 0.15 92 1014.3
20260507055319 5 296 3.2 6.4 0.08 0.15 0.15 92 1014.4
20260507054318 5 289 1.6 6.4 0.08 0.15 0.15 92 1014.3
20260507053822 5 269 1.6 4.8 0.05 0.13 0.13 92 1014.2
20260507053818 5 269 1.6 3.2 0.05 0.13 0.13 92 1014.2
20260507052818 5 269 0.0 4.8 0.05 0.13 0.13 91 1014.2
20260507052318 5 269 1.6 4.8 0.03 0.10 0.13 91 1014.1
20260507051819 5 269 1.6 4.8 0.03 0.10 0.10 91 1014.1
20260507051318 5 269 1.6 4.8 0.03 0.10 0.10 90 1014.0
20260507050819 5 269 1.6 4.8 0.03 0.10 0.10 89 1014.0
20260507050319 6 269 3.2 6.4 0.00 0.08 0.08 88 1013.9
20260507045818 6 269 3.2 6.4 0.00 0.08 0.08 88 1013.9
20260507045318 6 274 1.6 4.8 0.00 0.08 0.08 87 1013.9
20260507044818 6 275 1.6 4.8 0.00 0.08 0.08 87 1013.9
20260507044318 6 272 3.2 6.4 0.00 0.08 0.08 86 1013.8
20260507043819 6 272 3.2 6.4 0.00 0.08 0.08 86 1013.8
20260507043318 6 274 3.2 6.4 0.00 0.08 0.08 86 1013.7
20260507042822 6 280 3.2 8.0 0.00 0.08 0.08 85 1013.7
20260507042818 6 280 3.2 8.0 0.00 0.08 0.08 85 1013.7
20260507041821 6 297 1.6 6.4 0.00 0.08 0.08 85 1013.6
20260507041817 6 295 1.6 4.8 0.00 0.08 0.08 85 1013.6
20260507040821 6 295 3.2 6.4 0.00 0.08 0.08 84 1013.6
20260507040817 6 295 3.2 6.4 0.00 0.08 0.08 85 1013.6
20260507035816 6 294 4.8 6.4 0.00 0.08 0.08 84 1013.5
20260507035316 6 270 4.8 8.0 0.00 0.08 0.08 84 1013.5
20260507034814 6 304 4.8 8.0 0.00 0.08 0.08 84 1013.4
20260507034315 6 297 3.2 8.0 0.00 0.08 0.08 84 1013.4
20260507033814 6 297 3.2 8.0 0.00 0.08 0.08 84 1013.4
20260507033311 6 301 3.2 6.4 0.00 0.08 0.08 83 1013.4
20260507032815 6 293 3.2 6.4 0.00 0.08 0.08 83 1013.3
20260507032810 6 310 3.2 6.4 0.00 0.08 0.08 83 1013.3
20260507032416 6 293 3.2 6.4 0.00 0.08 0.08 83 1013.3
20260507031313 6 293 1.6 6.4 0.00 0.08 0.08 83 1013.2
20260507031309 7 299 1.6 4.8 0.00 0.08 0.08 84 1013.2
20260507030312 7 299 1.6 6.4 0.00 0.08 0.08 85 1013.2
20260507030308 7 299 1.6 6.4 0.00 0.08 0.08 85 1013.2
20260507025306 7 332 1.6 8.0 0.00 0.08 0.08 86 1013.2
20260507024804 7 331 3.2 8.0 0.00 0.08 0.08 85 1013.1
20260507024305 7 332 3.2 8.0 0.00 0.08 0.08 85 1013.1
20260507023805 7 331 3.2 8.0 0.00 0.08 0.08 84 1013.0
20260507023304 7 326 3.2 8.0 0.00 0.08 0.08 83 1013.1
20260507022804 7 351 1.6 8.0 0.00 0.08 0.08 83 1013.0
20260507022308 7 268 3.2 8.0 0.00 0.08 0.08 76 1012.9
20260507022306 7 321 3.2 8.0 0.00 0.08 0.08 80 1013.0
20260507021302 7 283 1.6 6.4 0.00 0.08 0.08 76 1012.9
20260507020800 7 264 3.2 6.4 0.00 0.08 0.08 74 1012.9
20260507020258 7 247 3.2 8.0 0.00 0.08 0.08 75 1012.9
20260507015759 7 242 1.6 8.0 0.00 0.08 0.08 75 1012.9
20260507015306 7 212 1.6 8.0 0.00 0.08 0.08 76 1012.8
20260507015258 7 253 1.6 6.4 0.00 0.08 0.08 76 1012.8
20260507014904 7 270 1.6 8.0 0.00 0.08 0.08 80 1012.8
20260507013758 7 217 1.6 8.0 0.03 0.08 0.08 81 1012.8
20260507013302 6 253 3.2 6.4 0.03 0.08 0.08 83 1012.7
20260507013258 7 252 1.6 8.0 0.03 0.08 0.08 81 1012.7
20260507012904 6 253 3.2 6.4 0.03 0.08 0.08 85 1012.7
20260507011759 6 253 1.6 4.8 0.03 0.08 0.08 86 1012.7
20260507011257 6 204 1.6 4.8 0.03 0.08 0.08 87 1012.7
20260507010758 6 204 1.6 4.8 0.03 0.08 0.08 86 1012.8
20260507010258 6 204 1.6 4.8 0.05 0.08 0.08 86 1012.7
20260507005756 6 179 1.6 4.8 0.05 0.08 0.08 86 1012.8
20260507005256 6 179 1.6 6.4 0.05 0.08 0.08 85 1012.7
20260507004757 6 356 0.0 3.2 0.08 0.08 0.08 87 1012.8
20260507004752 6 347 1.6 6.4 0.05 0.08 0.08 85 1012.8
20260507003751 6 356 1.6 4.8 0.05 0.05 0.05 88 1012.7
20260507003255 6 351 0.0 3.2 0.05 0.05 0.05 86 1012.6
20260507003251 6 356 1.6 4.8 0.05 0.05 0.05 87 1012.7
20260507002252 6 351 1.6 4.8 0.05 0.05 0.05 86 1012.7
20260507001752 6 351 1.6 4.8 0.05 0.05 0.05 86 1012.6
20260507001252 6 356 1.6 4.8 0.05 0.05 0.05 85 1012.6
20260507000752 6 299 1.6 4.8 0.05 0.05 0.05 86 1012.5
20260507000251 6 299 1.6 4.8 0.03 0.03 0.03 84 1012.5
20260506235751 6 299 3.2 4.8 0.03 0.03 0.03 83 1012.5
20260506235747 7 297 4.8 8.0 0.03 0.03 0.03 80 1012.4
20260506235350 7 299 1.6 4.8 0.03 0.03 0.03 82 1012.4
20260506234247 7 293 6.4 12.9 0.00 0.00 0.03 78 1012.3
20260506234243 7 287 4.8 12.9 0.00 0.00 0.00 75 1012.3
20260506233242 7 283 6.4 12.9 0.00 0.00 0.00 74 1012.2
20260506232742 7 301 6.4 12.9 0.00 0.00 0.00 73 1012.2
20260506232242 8 289 3.2 9.7 0.00 0.00 0.00 73 1012.1
20260506231747 8 250 3.2 9.7 0.00 0.00 0.00 70 1012.0
20260506231742 8 266 3.2 9.7 0.00 0.00 0.00 70 1012.0
20260506230736 8 264 1.6 9.7 0.00 0.00 0.00 71 1012.0
20260506230236 8 253 1.6 6.4 0.00 0.00 0.00 74 1012.0
20260506225736 7 212 3.2 9.7 0.00 0.00 0.00 72 1012.0
20260506225236 7 247 4.8 9.7 0.00 0.00 0.00 70 1011.9
20260506224738 8 249 6.4 12.9 0.00 0.00 0.00 72 1011.9
20260506224734 8 231 6.4 12.9 0.00 0.00 0.00 71 1011.9
20260506223734 8 280 6.4 11.3 0.00 0.00 0.00 69 1011.9
20260506223234 8 241 4.8 9.7 0.00 0.00 0.00 68 1011.7
20260506222734 8 285 6.4 14.5 0.00 0.00 0.00 68 1011.7
20260506222236 8 293 6.4 16.1 0.00 0.00 0.00 67 1011.7
20260506221735 8 273 6.4 16.1 0.00 0.00 0.00 66 1011.6
20260506221234 8 251 4.8 12.9 0.00 0.00 0.00 65 1011.6
20260506220734 9 209 4.8 12.9 0.00 0.00 0.00 65 1011.5
20260506220234 8 227 6.4 12.9 0.00 0.00 0.00 67 1011.6
20260506215734 9 268 8.0 12.9 0.00 0.00 0.00 66 1011.5
20260506215234 8 303 8.0 12.9 0.00 0.00 0.00 67 1011.5
20260506214733 8 279 8.0 12.9 0.00 0.00 0.00 68 1011.5
20260506214235 8 244 8.0 14.5 0.00 0.00 0.00 67 1011.4
20260506213737 8 282 8.0 16.1 0.00 0.00 0.00 69 1011.3
20260506213733 8 261 8.0 14.5 0.00 0.00 0.00 68 1011.4
20260506212732 8 266 6.4 16.1 0.00 0.00 0.00 67 1011.2
20260506212231 8 299 6.4 11.3 0.00 0.00 0.00 66 1011.2
20260506211731 8 285 4.8 11.3 0.00 0.00 0.00 65 1011.1
20260506211232 8 287 4.8 11.3 0.00 0.00 0.00 66 1011.1
20260506210732 8 289 6.4 11.3 0.00 0.00 0.00 66 1011.1
20260506210232 8 264 6.4 11.3 0.00 0.00 0.00 66 1011.0
20260506205732 8 282 4.8 9.7 0.00 0.00 0.00 65 1011.0
20260506205232 8 233 4.8 16.1 0.00 0.00 0.00 64 1011.1
20260506204731 9 265 3.2 16.1 0.00 0.00 0.00 64 1011.0
20260506204236 9 228 6.4 16.1 0.00 0.00 0.00 64 1010.9
20260506204231 9 201 4.8 11.3 0.00 0.00 0.00 63 1010.9
20260506203837 9 195 6.4 16.1 0.00 0.00 0.00 64 1010.9
20260506202732 9 158 4.8 11.3 0.00 0.00 0.00 60 1010.9
20260506202232 10 236 3.2 11.3 0.00 0.00 0.00 61 1010.8
20260506201736 9 197 3.2 11.3 0.00 0.00 0.00 63 1010.8
20260506201732 10 170 3.2 6.4 0.00 0.00 0.00 62 1010.8
20260506200732 9 202 4.8 11.3 0.00 0.00 0.00 65 1010.7
20260506200232 8 185 4.8 14.5 0.00 0.00 0.00 64 1010.7
20260506195732 8 291 4.8 14.5 0.00 0.00 0.00 64 1010.7
20260506195232 8 215 3.2 8.0 0.00 0.00 0.00 65 1010.7
20260506194732 8 319 3.2 9.7 0.00 0.00 0.00 66 1010.6
20260506194232 8 194 3.2 9.7 0.00 0.00 0.00 67 1010.7
20260506193731 8 243 4.8 9.7 0.00 0.00 0.00 67 1010.7
20260506193231 8 264 3.2 8.0 0.00 0.00 0.00 66 1010.6
20260506192731 8 198 1.6 8.0 0.00 0.00 0.00 69 1010.6
20260506192236 8 95 1.6 8.0 0.00 0.00 0.00 68 1010.6
20260506192232 8 85 1.6 8.0 0.00 0.00 0.00 69 1010.6
20260506191232 8 156 3.2 9.7 0.00 0.00 0.00 68 1010.6
20260506190732 8 133 3.2 9.7 0.00 0.00 0.00 67 1010.6
20260506190231 8 20 4.8 9.7 0.00 0.00 0.00 67 1010.6
20260506185732 8 145 4.8 11.3 0.00 0.00 0.00 66 1010.6
20260506185231 8 110 4.8 11.3 0.00 0.00 0.00 68 1010.6
20260506184729 8 196 4.8 12.9 0.00 0.00 0.00 67 1010.6
20260506184228 7 128 4.8 12.9 0.00 0.00 0.00 69 1010.6
20260506183732 7 92 4.8 9.7 0.00 0.00 0.00 70 1010.5
20260506183728 7 121 4.8 11.3 0.00 0.00 0.00 70 1010.5
20260506182727 7 106 4.8 11.3 0.00 0.00 0.00 70 1010.6
20260506182232 7 202 3.2 8.0 0.00 0.00 0.00 71 1010.5
20260506182228 7 159 4.8 11.3 0.00 0.00 0.00 70 1010.6
20260506181228 7 107 3.2 8.0 0.00 0.00 0.00 72 1010.4
20260506180728 7 198 3.2 8.0 0.00 0.00 0.00 73 1010.4
20260506180231 7 99 3.2 8.0 0.00 0.00 0.00 73 1010.4
20260506180227 7 145 3.2 8.0 0.00 0.00 0.00 73 1010.3
20260506175227 6 110 1.6 8.0 0.00 0.00 0.00 74 1010.4
20260506174725 6 179 1.6 4.8 0.00 0.00 0.00 76 1010.4
20260506174226 6 119 1.6 4.8 0.00 0.00 0.00 78 1010.4
20260506173725 6 101 1.6 4.8 0.00 0.00 0.00 78 1010.4
20260506173225 6 101 1.6 4.8 0.00 0.00 0.00 80 1010.4
20260506172723 6 101 1.6 4.8 0.00 0.00 0.00 81 1010.4
20260506172225 5 101 3.2 4.8 0.00 0.00 0.00 82 1010.4
20260506172221 6 101 1.6 4.8 0.00 0.00 0.00 82 1010.4
20260506171221 5 101 3.2 4.8 0.00 0.00 0.00 83 1010.4
20260506170722 5 328 1.6 4.8 0.00 0.00 0.00 84 1010.3
20260506170222 5 328 0.0 4.8 0.00 0.00 0.00 86 1010.3
20260506165718 5 328 0.0 3.2 0.00 0.00 0.00 88 1010.3
20260506165218 5 328 1.6 4.8 0.00 0.00 0.00 88 1010.2
20260506164717 5 328 0.0 4.8 0.00 0.00 0.00 89 1010.3
20260506164218 4 328 1.6 4.8 0.00 0.00 0.00 90 1010.2
20260506164214 4 328 0.0 3.2 0.00 0.00 0.00 90 1010.3
20260506163213 4 328 1.6 4.8 0.00 0.00 0.00 90 1010.2
20260506162711 4 328 0.0 4.8 0.00 0.00 0.00 91 1010.2
20260506162211 4 305 0.0 1.6 0.00 0.00 0.00 91 1010.2
20260506161705 3 306 0.0 1.6 0.00 0.00 0.00 91 1010.2
20260506161204 3 306 0.0 1.6 0.00 0.00 0.00 91 1010.3
20260506160704 3 306 0.0 3.2 0.00 0.00 0.00 92 1010.2
20260506160201 3 306 0.0 3.2 0.00 0.00 0.00 92 1010.2
20260506155702 3 306 0.0 4.8 0.00 0.00 0.00 92 1010.2
20260506155203 3 306 1.6 4.8 0.00 0.00 0.00 92 1010.1
20260506155158 3 306 0.0 3.2 0.00 0.00 0.00 93 1010.1
20260506154158 3 306 0.0 3.2 0.00 0.00 0.00 93 1010.1
20260506153655 3 306 0.0 3.2 0.00 0.00 0.00 93 1010.1
20260506153159 3 306 1.6 3.2 0.00 0.00 0.00 93 1010.1
20260506153155 3 306 1.6 3.2 0.00 0.00 0.00 93 1010.1
20260506152151 3 306 0.0 3.2 0.00 0.00 0.00 93 1010.1
20260506151651 3 306 0.0 3.2 0.00 0.00 0.00 93 1010.1
20260506151149 3 306 0.0 1.6 0.00 0.00 0.00 93 1010.1
20260506150649 2 306 0.0 1.6 0.00 0.00 0.00 93 1010.1
20260506150143 2 256 0.0 1.6 0.00 0.00 0.00 93 1010.0
20260506145641 2 256 0.0 1.6 0.00 0.00 0.00 93 1010.0
20260506145141 2 256 0.0 1.6 0.00 0.00 0.00 93 1010.0
20260506144639 2 256 0.0 0.0 0.00 0.00 0.00 93 1010.0
20260506144140 2 256 0.0 1.6 0.00 0.00 0.00 93 1010.1
20260506143635 2 256 0.0 1.6 0.00 0.00 0.00 93 1010.0
20260506143135 2 256 0.0 0.0 0.00 0.00 0.00 92 1010.0
20260506142635 2 256 0.0 0.0 0.00 0.00 0.00 92 1010.0
20260506142133 3 256 0.0 0.0 0.00 0.00 0.00 92 1010.0
20260506141632 3 256 0.0 0.0 0.00 0.00 0.00 92 1010.0
20260506141131 3 256 0.0 0.0 0.00 0.00 0.00 92 1010.0
20260506140629 3 256 0.0 0.0 0.00 0.00 0.00 91 1010.0
20260506140129 3 256 0.0 0.0 0.00 0.00 0.00 91 1010.0
20260506135623 3 256 0.0 0.0 0.00 0.00 0.00 91 1010.0
20260506135123 3 256 0.0 0.0 0.00 0.00 0.00 91 1010.0
20260506134617 3 256 0.0 0.0 0.00 0.00 0.00 90 1010.1
20260506134115 3 256 0.0 0.0 0.00 0.00 0.00 90 1010.0
20260506133615 3 256 0.0 0.0 0.00 0.00 0.00 90 1010.0
20260506133113 3 256 0.0 1.6 0.00 0.00 0.00 89 1010.0
20260506132611 3 256 0.0 1.6 0.00 0.00 0.00 88 1009.9
20260506132114 3 256 0.0 0.0 0.00 0.00 0.00 88 1009.9
20260506132110 3 256 0.0 0.0 0.00 0.00 0.00 87 1009.9
20260506131109 4 256 0.0 0.0 0.00 0.00 0.00 86 1009.9
20260506130603 4 256 0.0 0.0 0.00 0.00 0.00 85 1009.9
20260506130100 4 256 0.0 0.0 0.00 0.00 0.00 84 1009.9
20260506125600 4 256 0.0 0.0 0.00 0.00 0.00 84 1009.9
20260506125059 4 256 0.0 0.0 0.00 0.00 0.00 83 1009.9
20260506124601 5 256 0.0 0.0 0.00 0.00 0.00 82 1009.8
20260506124557 4 256 0.0 0.0 0.00 0.00 0.00 82 1009.9